Location: Terre Du Lac
(37.9120°N, 90.6250°W)
Time: 02:36:53
(UTC-05:00)

Hubble Space Telescope - Visible Passes

Search period start: 19 August 2017 00:00
Search period end: 29 August 2017 00:00
Orbit: 538 x 542 km, 28.5° (Epoch: 18 August)

Date Brightness Start Highest point End Pass type
(mag) Time Alt. Az. Time Alt. Az. Time Alt. Az.
19 Aug 3.1 04:12:56 14° SE 04:12:56 14° SE 04:13:59 10° SE visible
19 Aug 2.4 05:48:44 10° SW 05:51:57 22° S 05:55:10 10° SE visible
20 Aug 3.3 04:03:25 12° SE 04:03:25 12° SE 04:03:59 10° SE visible
20 Aug 2.3 05:38:47 11° SW 05:41:45 21° S 05:44:56 10° SE visible
21 Aug 3.5 03:53:56 10° SE 03:53:56 10° SE 03:53:57 10° SE visible
21 Aug 2.3 05:29:18 14° SW 05:31:33 21° S 05:34:40 10° SE visible
22 Aug 2.4 05:19:53 16° SW 05:21:21 19° S 05:24:22 10° SE visible
23 Aug 2.4 05:10:34 17° SSW 05:11:09 18° S 05:13:59 10° SSE visible
24 Aug 2.6 05:01:19 16° S 05:01:19 16° S 05:03:31 10° SSE visible
25 Aug 3.0 04:52:12 12° S 04:52:12 12° S 04:52:57 10° SSE visible
